Time,TemperatureF,DewpointF,PressureIn,WindDirection,WindDirectionDegrees,WindSpeedMPH,WindSpeedGustMPH,Humidity,HourlyPrecipIn,Conditions,Clouds,dailyrainin,SoftwareType,DateUTC
2013-11-30 00:02:00,52.0,41.8,30.08,East,100,0.0,0.0,68,0.00,,---,0.03,VWS V14.01,2013-11-30 08:02:00,
2013-11-30 00:12:00,51.6,41.8,30.08,East,100,0.0,0.0,69,0.00,,---,0.00,VWS V14.01,2013-11-30 08:12:00,
2013-11-30 00:22:00,51.1,41.7,30.08,East,100,0.0,0.0,70,0.00,,---,0.00,VWS V14.01,2013-11-30 08:22:00,
2013-11-30 00:27:00,51.0,41.6,30.08,East,100,0.0,0.0,70,0.00,,---,0.00,VWS V14.01,2013-11-30 08:27:00,
2013-11-30 00:32:00,50.8,41.4,30.08,East,100,0.0,0.0,70,0.00,,---,0.00,VWS V14.01,2013-11-30 08:32:00,
2013-11-30 00:42:00,50.5,41.5,30.08,East,100,0.0,0.0,71,0.00,,---,0.00,VWS V14.01,2013-11-30 08:42:00,
2013-11-30 00:52:00,50.2,41.5,30.07,East,100,0.0,0.0,72,0.00,,---,0.00,VWS V14.01,2013-11-30 08:52:00,
2013-11-30 00:57:00,50.1,41.4,30.07,East,100,0.0,0.0,72,0.00,,---,0.00,VWS V14.01,2013-11-30 08:57:00,
2013-11-30 01:02:00,49.9,41.2,30.07,East,100,0.0,0.0,72,0.00,,---,0.00,VWS V14.01,2013-11-30 09:02:00,
2013-11-30 01:12:00,49.6,41.0,30.07,East,100,0.0,0.0,72,0.00,,---,0.00,VWS V14.01,2013-11-30 09:12:00,
2013-11-30 01:17:00,49.5,40.9,30.07,East,100,0.0,0.0,72,0.00,,---,0.00,VWS V14.01,2013-11-30 09:17:00,
2013-11-30 01:22:00,49.5,41.2,30.07,East,100,0.0,0.0,73,0.00,,---,0.00,VWS V14.01,2013-11-30 09:22:00,
2013-11-30 01:27:00,49.6,41.3,30.07,East,100,0.0,0.0,73,0.00,,---,0.00,VWS V14.01,2013-11-30 09:27:00,
2013-11-30 01:37:00,49.8,41.9,30.07,East,100,0.0,0.0,74,0.00,,---,0.00,VWS V14.01,2013-11-30 09:37:00,
2013-11-30 01:47:00,49.7,41.8,30.08,East,100,0.0,0.0,74,0.00,,---,0.00,VWS V14.01,2013-11-30 09:47:00,
2013-11-30 01:52:00,50.2,42.2,30.08,East,100,0.0,0.0,74,0.00,,---,0.00,VWS V14.01,2013-11-30 09:52:00,
2013-11-30 01:57:00,50.4,42.4,30.08,East,100,0.0,0.0,74,0.00,,---,0.00,VWS V14.01,2013-11-30 09:57:00,
2013-11-30 02:02:00,50.4,42.4,30.08,East,100,0.0,0.0,74,0.00,,---,0.00,VWS V14.01,2013-11-30 10:02:00,
2013-11-30 02:12:00,50.5,42.5,30.08,East,100,0.0,0.0,74,0.00,,---,0.00,VWS V14.01,2013-11-30 10:12:00,
2013-11-30 02:22:00,50.8,42.5,30.07,East,100,0.0,0.0,73,0.00,,---,0.00,VWS V14.01,2013-11-30 10:22:00,
2013-11-30 02:32:00,51.3,42.6,30.07,East,100,0.0,0.0,72,0.00,,---,0.00,VWS V14.01,2013-11-30 10:32:00,
2013-11-30 02:42:00,51.7,43.0,30.07,East,100,0.0,0.0,72,0.00,,---,0.00,VWS V14.01,2013-11-30 10:42:00,
2013-11-30 02:52:00,52.0,42.9,30.07,East,100,0.0,0.0,71,0.00,,---,0.00,VWS V14.01,2013-11-30 10:52:00,
2013-11-30 02:57:00,52.2,43.1,30.07,East,100,0.0,0.0,71,0.00,,---,0.00,VWS V14.01,2013-11-30 10:57:00,
2013-11-30 03:02:00,52.2,42.7,30.07,East,100,0.0,0.0,70,0.00,,---,0.00,VWS V14.01,2013-11-30 11:02:00,
2013-11-30 03:12:00,52.3,42.8,30.07,East,100,0.0,0.0,70,0.00,,---,0.00,VWS V14.01,2013-11-30 11:12:00,
2013-11-30 03:22:00,52.3,42.8,30.07,East,100,0.0,0.0,70,0.00,,---,0.00,VWS V14.01,2013-11-30 11:22:00,
2013-11-30 03:32:00,52.3,42.8,30.07,East,100,0.0,0.0,70,0.00,,---,0.00,VWS V14.01,2013-11-30 11:32:00,
2013-11-30 03:37:00,52.2,42.3,30.07,East,100,0.0,0.0,69,0.00,,---,0.00,VWS V14.01,2013-11-30 11:37:00,
2013-11-30 03:42:00,52.0,42.5,30.07,East,100,0.0,0.0,70,0.00,,---,0.00,VWS V14.01,2013-11-30 11:42:00,
2013-11-30 03:47:00,52.0,42.5,30.07,East,100,0.0,0.0,70,0.00,,---,0.00,VWS V14.01,2013-11-30 11:47:00,
2013-11-30 03:52:00,51.9,42.1,30.07,East,100,0.0,0.0,69,0.00,,---,0.00,VWS V14.01,2013-11-30 11:52:00,
2013-11-30 04:02:00,51.9,42.1,30.07,East,100,0.0,0.0,69,0.00,,---,0.00,VWS V14.01,2013-11-30 12:02:00,
2013-11-30 04:12:00,51.7,41.9,30.07,East,100,0.0,0.0,69,0.00,,---,0.00,VWS V14.01,2013-11-30 12:12:00,
2013-11-30 04:17:00,51.7,41.9,30.07,East,100,0.0,0.0,69,0.00,,---,0.00,VWS V14.01,2013-11-30 12:17:00,
2013-11-30 04:27:00,51.4,42.0,30.07,East,100,0.0,0.0,70,0.00,,---,0.00,VWS V14.01,2013-11-30 12:27:00,
2013-11-30 04:32:00,51.3,41.9,30.07,East,100,0.0,0.0,70,0.00,,---,0.00,VWS V14.01,2013-11-30 12:32:00,
2013-11-30 04:37:00,51.1,41.7,30.07,East,100,0.0,0.0,70,0.00,,---,0.00,VWS V14.01,2013-11-30 12:37:00,
2013-11-30 04:42:00,51.0,41.6,30.07,East,100,0.0,0.0,70,0.00,,---,0.00,VWS V14.01,2013-11-30 12:42:00,
2013-11-30 04:47:00,50.8,41.4,30.07,East,100,0.0,0.0,70,0.00,,---,0.00,VWS V14.01,2013-11-30 12:47:00,
2013-11-30 04:57:00,50.8,41.4,30.07,East,100,0.0,0.0,70,0.00,,---,0.00,VWS V14.01,2013-11-30 12:57:00,
2013-11-30 05:02:00,50.7,41.7,30.07,East,100,0.0,0.0,71,0.00,,---,0.00,VWS V14.01,2013-11-30 13:02:00,
2013-11-30 05:07:00,50.7,41.7,30.07,East,100,0.0,0.0,71,0.00,,---,0.00,VWS V14.01,2013-11-30 13:07:00,
2013-11-30 05:12:00,50.7,41.7,30.07,East,100,0.0,0.0,71,0.00,,---,0.00,VWS V14.01,2013-11-30 13:12:00,
2013-11-30 05:17:00,50.7,41.7,30.07,East,100,0.0,0.0,71,0.00,,---,0.00,VWS V14.01,2013-11-30 13:17:00,
2013-11-30 05:22:00,50.5,41.5,30.07,East,100,0.0,0.0,71,0.00,,---,0.00,VWS V14.01,2013-11-30 13:22:00,
2013-11-30 05:27:00,50.5,41.5,30.07,East,100,0.0,0.0,71,0.00,,---,0.00,VWS V14.01,2013-11-30 13:27:00,
2013-11-30 05:32:00,50.4,41.4,30.07,East,100,0.0,0.0,71,0.00,,---,0.00,VWS V14.01,2013-11-30 13:32:00,
2013-11-30 05:37:00,50.4,41.4,30.07,East,100,0.0,0.0,71,0.00,,---,0.00,VWS V14.01,2013-11-30 13:37:00,
2013-11-30 05:42:00,50.2,41.2,30.07,East,100,0.0,0.0,71,0.00,,---,0.00,VWS V14.01,2013-11-30 13:42:00,
2013-11-30 05:52:00,49.9,41.2,30.07,East,100,0.0,0.0,72,0.00,,---,0.00,VWS V14.01,2013-11-30 13:52:00,
2013-11-30 05:57:00,49.8,41.2,30.07,East,100,0.0,0.0,72,0.00,,---,0.00,VWS V14.01,2013-11-30 13:57:00,
2013-11-30 06:07:00,49.5,40.9,30.07,East,100,0.0,0.0,72,0.00,,---,0.00,VWS V14.01,2013-11-30 14:07:00,
2013-11-30 06:12:00,49.4,40.8,30.07,East,100,0.0,0.0,72,0.00,,---,0.00,VWS V14.01,2013-11-30 14:12:00,
2013-11-30 06:22:00,49.1,40.5,30.08,East,100,0.0,0.0,72,0.00,,---,0.00,VWS V14.01,2013-11-30 14:22:00,
2013-11-30 06:32:00,48.8,40.5,30.08,East,100,0.0,0.0,73,0.00,,---,0.00,VWS V14.01,2013-11-30 14:32:00,
2013-11-30 06:37:00,48.6,40.3,30.08,East,100,0.0,0.0,73,0.00,,---,0.00,VWS V14.01,2013-11-30 14:37:00,
2013-11-30 06:42:00,48.5,40.2,30.08,East,100,0.0,0.0,73,0.00,,---,0.00,VWS V14.01,2013-11-30 14:42:00,
2013-11-30 06:47:00,48.3,40.4,30.09,East,100,0.0,0.0,74,0.00,,---,0.00,VWS V14.01,2013-11-30 14:47:00,
2013-11-30 06:52:00,48.2,40.3,30.09,East,100,0.0,0.0,74,0.00,,---,0.00,VWS V14.01,2013-11-30 14:52:00,
2013-11-30 07:02:00,47.9,40.0,30.09,East,79,0.0,0.0,74,0.00,,---,0.00,VWS V14.01,2013-11-30 15:02:00,
2013-11-30 07:07:00,47.9,40.4,30.09,East,79,0.0,0.0,75,0.00,,---,0.00,VWS V14.01,2013-11-30 15:07:00,
2013-11-30 07:12:00,47.9,40.4,30.09,East,79,0.0,0.0,75,0.00,,---,0.00,VWS V14.01,2013-11-30 15:12:00,
2013-11-30 07:17:00,48.0,40.5,30.09,East,79,0.0,0.0,75,0.00,,---,0.00,VWS V14.01,2013-11-30 15:17:00,
2013-11-30 07:22:00,48.2,41.0,30.09,East,79,0.0,0.0,76,0.00,,---,0.00,VWS V14.01,2013-11-30 15:22:00,
2013-11-30 07:27:00,48.2,41.0,30.09,East,79,0.0,0.0,76,0.00,,---,0.00,VWS V14.01,2013-11-30 15:27:00,
2013-11-30 07:37:00,48.6,41.7,30.09,East,79,0.0,0.0,77,0.00,,---,0.00,VWS V14.01,2013-11-30 15:37:00,
2013-11-30 07:42:00,48.9,42.0,30.09,East,79,0.0,0.0,77,0.00,,---,0.00,VWS V14.01,2013-11-30 15:42:00,
2013-11-30 07:52:00,52.8,45.1,30.09,East,79,0.0,0.0,75,0.00,,---,0.00,VWS V14.01,2013-11-30 15:52:00,
2013-11-30 08:02:00,55.4,43.4,30.09,East,79,0.0,0.0,64,0.00,,---,0.00,VWS V14.01,2013-11-30 16:02:00,
2013-11-30 08:07:00,56.2,43.0,30.09,East,79,0.0,0.0,61,0.00,,---,0.00,VWS V14.01,2013-11-30 16:07:00,
2013-11-30 08:17:00,57.3,43.5,30.10,East,79,0.0,0.0,60,0.00,,---,0.00,VWS V14.01,2013-11-30 16:17:00,
2013-11-30 08:22:00,58.1,43.4,30.10,East,80,0.0,0.0,58,0.00,,---,0.00,VWS V14.01,2013-11-30 16:22:00,
2013-11-30 08:27:00,58.4,43.7,30.10,East,80,0.0,0.0,58,0.00,,---,0.00,VWS V14.01,2013-11-30 16:27:00,
2013-11-30 08:32:00,59.2,44.0,30.10,East,80,0.0,0.0,57,0.00,,---,0.00,VWS V14.01,2013-11-30 16:32:00,
2013-11-30 08:42:00,60.4,43.7,30.10,SW,223,0.0,0.0,54,0.00,,---,0.00,VWS V14.01,2013-11-30 16:42:00,
2013-11-30 08:47:00,60.9,43.2,30.10,SW,223,0.0,0.0,52,0.00,,---,0.00,VWS V14.01,2013-11-30 16:47:00,
2013-11-30 08:52:00,61.6,42.8,30.10,SW,223,0.0,0.0,50,0.00,,---,0.00,VWS V14.01,2013-11-30 16:52:00,
2013-11-30 08:57:00,62.3,43.4,30.10,SW,224,0.0,0.0,50,0.00,,---,0.00,VWS V14.01,2013-11-30 16:57:00,
2013-11-30 09:07:00,63.2,44.8,30.09,SW,224,0.0,0.0,51,0.00,,---,0.00,VWS V14.01,2013-11-30 17:07:00,
2013-11-30 09:12:00,63.9,44.4,30.09,WNW,295,0.0,0.0,49,0.00,,---,0.00,VWS V14.01,2013-11-30 17:12:00,
2013-11-30 09:17:00,64.8,45.2,30.09,WNW,292,0.0,0.0,49,0.00,,---,0.00,VWS V14.01,2013-11-30 17:17:00,
2013-11-30 09:22:00,64.8,44.1,30.09,WNW,292,0.0,0.0,47,0.00,,---,0.00,VWS V14.01,2013-11-30 17:22:00,
2013-11-30 09:27:00,66.1,45.3,30.09,NW,308,0.0,0.0,47,0.00,,---,0.00,VWS V14.01,2013-11-30 17:27:00,
2013-11-30 09:37:00,67.6,44.3,30.09,North,0,0.0,0.0,43,0.00,,---,0.00,VWS V14.01,2013-11-30 17:37:00,
2013-11-30 09:47:00,69.1,43.8,30.09,NE,54,0.0,0.0,40,0.00,,---,0.00,VWS V14.01,2013-11-30 17:47:00,
2013-11-30 09:52:00,69.8,43.1,30.09,NE,54,0.0,0.0,38,0.00,,---,0.00,VWS V14.01,2013-11-30 17:52:00,
2013-11-30 09:57:00,70.3,43.5,30.09,SSW,193,0.0,0.0,38,0.00,,---,0.00,VWS V14.01,2013-11-30 17:57:00,
2013-11-30 10:07:00,71.5,43.9,30.08,SSE,147,0.0,0.0,37,0.00,,---,0.00,VWS V14.01,2013-11-30 18:07:00,
2013-11-30 10:17:00,72.7,44.2,30.07,SSE,154,0.0,2.0,36,0.00,,---,0.00,VWS V14.01,2013-11-30 18:17:00,
2013-11-30 10:22:00,73.0,43.8,30.07,ENE,73,0.0,6.0,35,0.00,,---,0.00,VWS V14.01,2013-11-30 18:22:00,
2013-11-30 10:27:00,73.2,43.2,30.07,ESE,117,1.0,2.0,34,0.00,,---,0.00,VWS V14.01,2013-11-30 18:27:00,
2013-11-30 10:32:00,73.3,44.0,30.07,SE,126,0.0,8.0,35,0.00,,---,0.00,VWS V14.01,2013-11-30 18:32:00,
2013-11-30 10:42:00,74.0,43.9,30.07,SE,134,10.0,10.0,34,0.00,,---,0.00,VWS V14.01,2013-11-30 18:42:00,
2013-11-30 10:52:00,74.6,42.8,30.06,SE,136,0.0,8.0,32,0.00,,---,0.00,VWS V14.01,2013-11-30 18:52:00,
2013-11-30 10:57:00,74.9,42.3,30.06,South,175,2.0,11.0,31,0.00,,---,0.00,VWS V14.01,2013-11-30 18:57:00,
2013-11-30 11:02:00,75.3,43.4,30.05,South,181,2.0,11.0,32,0.00,,---,0.00,VWS V14.01,2013-11-30 19:02:00,
2013-11-30 11:12:00,76.0,43.2,30.05,SE,133,0.0,6.0,31,0.00,,---,0.00,VWS V14.01,2013-11-30 19:12:00,
2013-11-30 11:17:00,76.1,42.5,30.04,SE,145,8.0,8.0,30,0.00,,---,0.00,VWS V14.01,2013-11-30 19:17:00,
2013-11-30 11:22:00,75.8,42.2,30.04,SSE,147,3.0,13.0,30,0.00,,---,0.00,VWS V14.01,2013-11-30 19:22:00,
2013-11-30 11:27:00,76.3,44.3,30.04,SE,144,0.0,11.0,32,0.00,,---,0.00,VWS V14.01,2013-11-30 19:27:00,
2013-11-30 11:32:00,76.3,41.7,30.03,SE,144,0.0,13.0,29,0.00,,---,0.00,VWS V14.01,2013-11-30 19:32:00,
2013-11-30 11:37:00,76.1,42.5,30.03,SSE,168,1.0,12.0,30,0.00,,---,0.00,VWS V14.01,2013-11-30 19:37:00,
2013-11-30 11:47:00,76.8,42.2,30.02,SSE,161,5.0,8.0,29,0.00,,---,0.00,VWS V14.01,2013-11-30 19:47:00,
2013-11-30 11:52:00,77.0,42.3,30.02,ESE,109,11.0,14.0,29,0.00,,---,0.00,VWS V14.01,2013-11-30 19:52:00,
2013-11-30 11:57:00,76.8,42.2,30.02,SE,130,6.0,12.0,29,0.00,,---,0.00,VWS V14.01,2013-11-30 19:57:00,
2013-11-30 12:07:00,77.2,42.5,30.01,SE,130,0.0,11.0,29,0.00,,---,0.00,VWS V14.01,2013-11-30 20:07:00,
2013-11-30 12:17:00,77.4,42.7,30.01,East,90,6.0,12.0,29,0.00,,---,0.00,VWS V14.01,2013-11-30 20:17:00,
2013-11-30 12:22:00,77.2,42.5,30.01,South,171,0.0,10.0,29,0.00,,---,0.00,VWS V14.01,2013-11-30 20:22:00,
2013-11-30 12:32:00,77.2,42.5,30.00,SSE,157,13.0,14.0,29,0.00,,---,0.00,VWS V14.01,2013-11-30 20:32:00,
2013-11-30 12:42:00,77.6,42.9,30.00,SSE,147,0.0,10.0,29,0.00,,---,0.00,VWS V14.01,2013-11-30 20:42:00,
2013-11-30 12:47:00,77.7,42.0,30.00,SE,136,8.0,9.0,28,0.00,,---,0.00,VWS V14.01,2013-11-30 20:47:00,
2013-11-30 12:52:00,77.9,42.2,30.00,SE,124,1.0,8.0,28,0.00,,---,0.00,VWS V14.01,2013-11-30 20:52:00,
2013-11-30 12:57:00,78.1,42.4,30.00,SE,138,5.0,10.0,28,0.00,,---,0.00,VWS V14.01,2013-11-30 20:57:00,
2013-11-30 13:02:00,78.1,42.4,29.99,SE,144,5.0,8.0,28,0.00,,---,0.00,VWS V14.01,2013-11-30 21:02:00,
2013-11-30 13:12:00,78.3,43.5,29.99,ESE,119,1.0,8.0,29,0.00,,---,0.00,VWS V14.01,2013-11-30 21:12:00,
2013-11-30 13:22:00,78.6,42.8,29.99,East,80,6.0,8.0,28,0.00,,---,0.00,VWS V14.01,2013-11-30 21:22:00,
2013-11-30 13:27:00,78.6,43.7,29.99,ESE,116,3.0,8.0,29,0.00,,---,0.00,VWS V14.01,2013-11-30 21:27:00,
2013-11-30 13:32:00,78.6,41.9,29.97,ESE,116,7.0,8.0,27,0.00,,---,0.00,VWS V14.01,2013-11-30 21:32:00,
2013-11-30 13:42:00,78.3,42.5,29.97,East,100,0.0,7.0,28,0.00,,---,0.00,VWS V14.01,2013-11-30 21:42:00,
2013-11-30 13:47:00,78.3,41.6,29.97,ESE,116,0.0,6.0,27,0.00,,---,0.00,VWS V14.01,2013-11-30 21:47:00,
2013-11-30 13:57:00,78.3,42.5,29.97,SSE,155,7.0,10.0,28,0.00,,---,0.00,VWS V14.01,2013-11-30 21:57:00,
2013-11-30 14:02:00,78.1,42.4,29.97,ESE,109,14.0,14.0,28,0.00,,---,0.00,VWS V14.01,2013-11-30 22:02:00,
2013-11-30 14:12:00,78.3,42.5,29.97,East,93,2.0,6.0,28,0.00,,---,0.00,VWS V14.01,2013-11-30 22:12:00,
2013-11-30 14:17:00,78.1,42.4,29.97,ESE,103,1.0,7.0,28,0.00,,---,0.00,VWS V14.01,2013-11-30 22:17:00,
2013-11-30 14:27:00,77.9,41.3,29.97,East,97,5.0,15.0,27,0.00,,---,0.00,VWS V14.01,2013-11-30 22:27:00,
2013-11-30 14:37:00,77.2,40.7,29.97,ESE,113,0.0,13.0,27,0.00,,---,0.00,VWS V14.01,2013-11-30 22:37:00,
2013-11-30 14:42:00,77.0,41.4,29.97,SE,141,2.0,11.0,28,0.00,,---,0.00,VWS V14.01,2013-11-30 22:42:00,
2013-11-30 14:52:00,77.0,42.3,29.97,East,89,2.0,11.0,29,0.00,,---,0.00,VWS V14.01,2013-11-30 22:52:00,
2013-11-30 15:02:00,76.7,41.2,29.98,ESE,114,2.0,8.0,28,0.00,,---,0.00,VWS V14.01,2013-11-30 23:02:00,
2013-11-30 15:12:00,76.1,39.7,29.98,SE,136,6.0,12.0,27,0.00,,---,0.00,VWS V14.01,2013-11-30 23:12:00,
2013-11-30 15:17:00,75.8,40.4,29.98,SE,124,0.0,11.0,28,0.00,,---,0.00,VWS V14.01,2013-11-30 23:17:00,
2013-11-30 15:22:00,75.8,40.4,29.98,ESE,106,2.0,8.0,28,0.00,,---,0.00,VWS V14.01,2013-11-30 23:22:00,
2013-11-30 15:27:00,75.6,40.2,29.98,SE,124,0.0,13.0,28,0.00,,---,0.00,VWS V14.01,2013-11-30 23:27:00,
2013-11-30 15:32:00,75.4,41.0,29.98,East,86,0.0,7.0,29,0.00,,---,0.00,VWS V14.01,2013-11-30 23:32:00,
2013-11-30 15:42:00,74.9,39.6,29.98,ESE,104,0.0,8.0,28,0.00,,---,0.00,VWS V14.01,2013-11-30 23:42:00,
2013-11-30 15:47:00,74.7,39.5,29.99,ESE,114,6.0,13.0,28,0.00,,---,0.00,VWS V14.01,2013-11-30 23:47:00,
2013-11-30 15:57:00,74.4,40.1,29.99,East,85,0.0,8.0,29,0.00,,---,0.00,VWS V14.01,2013-11-30 23:57:00,
2013-11-30 16:07:00,73.7,39.5,29.99,East,86,2.0,8.0,29,0.00,,---,0.00,VWS V14.01,2013-12-01 00:07:00,
2013-11-30 16:12:00,73.3,40.0,29.99,SE,128,0.0,6.0,30,0.00,,---,0.00,VWS V14.01,2013-12-01 00:12:00,
2013-11-30 16:22:00,72.7,40.3,29.99,ESE,110,0.0,0.0,31,0.00,,---,0.00,VWS V14.01,2013-12-01 00:22:00,
2013-11-30 16:32:00,72.5,40.2,30.00,ESE,116,0.0,0.0,31,0.00,,---,0.00,VWS V14.01,2013-12-01 00:32:00,
2013-11-30 16:37:00,72.5,41.0,30.00,ESE,116,0.0,0.0,32,0.00,,---,0.00,VWS V14.01,2013-12-01 00:37:00,
2013-11-30 16:42:00,72.0,40.6,30.00,West,281,0.0,0.0,32,0.00,,---,0.00,VWS V14.01,2013-12-01 00:42:00,
2013-11-30 16:47:00,71.5,41.7,30.01,WNW,282,0.0,0.0,34,0.00,,---,0.00,VWS V14.01,2013-12-01 00:47:00,
2013-11-30 16:57:00,70.8,42.5,30.01,WNW,282,0.0,0.0,36,0.00,,---,0.00,VWS V14.01,2013-12-01 00:57:00,
2013-11-30 17:02:00,69.9,42.5,30.02,WNW,282,0.0,0.0,37,0.00,,---,0.00,VWS V14.01,2013-12-01 01:02:00,
2013-11-30 17:12:00,68.1,42.2,30.02,North,0,0.0,0.0,39,0.00,,---,0.00,VWS V14.01,2013-12-01 01:12:00,
2013-11-30 17:17:00,67.3,41.5,30.02,North,0,0.0,0.0,39,0.00,,---,0.00,VWS V14.01,2013-12-01 01:17:00,
2013-11-30 17:22:00,66.6,40.9,30.02,North,0,0.0,0.0,39,0.00,,---,0.00,VWS V14.01,2013-12-01 01:22:00,
2013-11-30 17:27:00,66.1,41.7,30.02,North,0,0.0,0.0,41,0.00,,---,0.00,VWS V14.01,2013-12-01 01:27:00,
2013-11-30 17:37:00,64.8,41.2,30.03,North,0,0.0,0.0,42,0.00,,---,0.00,VWS V14.01,2013-12-01 01:37:00,
2013-11-30 17:42:00,64.0,40.5,30.03,North,0,0.0,0.0,42,0.00,,---,0.00,VWS V14.01,2013-12-01 01:42:00,
2013-11-30 17:52:00,63.1,40.3,30.04,North,0,0.0,0.0,43,0.00,,---,0.00,VWS V14.01,2013-12-01 01:52:00,
2013-11-30 17:57:00,62.6,39.8,30.04,North,0,0.0,0.0,43,0.00,,---,0.00,VWS V14.01,2013-12-01 01:57:00,
2013-11-30 18:02:00,62.1,40.0,30.04,North,0,0.0,0.0,44,0.00,,---,0.00,VWS V14.01,2013-12-01 02:02:00,
2013-11-30 18:12:00,61.0,40.1,30.04,North,0,0.0,0.0,46,0.00,,---,0.00,VWS V14.01,2013-12-01 02:12:00,
2013-11-30 18:17:00,60.5,39.6,30.04,NNE,28,0.0,0.0,46,0.00,,---,0.00,VWS V14.01,2013-12-01 02:17:00,
2013-11-30 18:27:00,59.5,39.8,30.04,NNE,28,0.0,0.0,48,0.00,,---,0.00,VWS V14.01,2013-12-01 02:27:00,
2013-11-30 18:32:00,59.2,40.1,30.05,NNE,28,0.0,0.0,49,0.00,,---,0.00,VWS V14.01,2013-12-01 02:32:00,
2013-11-30 18:42:00,58.4,39.8,30.05,NNE,28,0.0,0.0,50,0.00,,---,0.00,VWS V14.01,2013-12-01 02:42:00,
2013-11-30 18:47:00,58.1,40.1,30.05,NNE,28,0.0,0.0,51,0.00,,---,0.00,VWS V14.01,2013-12-01 02:47:00,
2013-11-30 18:52:00,57.6,39.6,30.05,NNE,28,0.0,0.0,51,0.00,,---,0.00,VWS V14.01,2013-12-01 02:52:00,
2013-11-30 19:02:00,57.6,38.6,30.06,NNE,28,0.0,0.0,49,0.00,,---,0.00,VWS V14.01,2013-12-01 03:02:00,
2013-11-30 19:12:00,58.7,38.5,30.06,NNE,28,0.0,0.0,47,0.00,,---,0.00,VWS V14.01,2013-12-01 03:12:00,
2013-11-30 19:22:00,59.5,39.3,30.05,NNE,28,0.0,0.0,47,0.00,,---,0.00,VWS V14.01,2013-12-01 03:22:00,
2013-11-30 19:32:00,59.5,38.7,30.06,NNE,28,0.0,0.0,46,0.00,,---,0.00,VWS V14.01,2013-12-01 03:32:00,
2013-11-30 19:37:00,60.2,39.4,30.06,NNE,28,0.0,0.0,46,0.00,,---,0.00,VWS V14.01,2013-12-01 03:37:00,
2013-11-30 19:42:00,60.1,40.4,30.06,NNE,28,0.0,0.0,48,0.00,,---,0.00,VWS V14.01,2013-12-01 03:42:00,
2013-11-30 19:52:00,59.5,39.8,30.07,NNE,28,0.0,0.0,48,0.00,,---,0.00,VWS V14.01,2013-12-01 03:52:00,
2013-11-30 19:57:00,58.9,39.8,30.07,NNE,28,0.0,0.0,49,0.00,,---,0.00,VWS V14.01,2013-12-01 03:57:00,
2013-11-30 20:07:00,59.5,39.8,30.06,NNE,28,0.0,0.0,48,0.00,,---,0.00,VWS V14.01,2013-12-01 04:07:00,
2013-11-30 20:12:00,59.8,38.4,30.06,NNE,28,0.0,0.0,45,0.00,,---,0.00,VWS V14.01,2013-12-01 04:12:00,
2013-11-30 20:17:00,61.3,38.6,30.06,NNE,28,0.0,0.0,43,0.00,,---,0.00,VWS V14.01,2013-12-01 04:17:00,
2013-11-30 20:22:00,62.1,39.4,30.06,NNE,28,0.0,0.0,43,0.00,,---,0.00,VWS V14.01,2013-12-01 04:22:00,
2013-11-30 20:27:00,62.6,38.6,30.06,NNE,28,0.0,0.0,41,0.00,,---,0.00,VWS V14.01,2013-12-01 04:27:00,
2013-11-30 20:32:00,62.9,38.2,30.06,NNE,28,0.0,0.0,40,0.00,,---,0.00,VWS V14.01,2013-12-01 04:32:00,
2013-11-30 20:37:00,63.1,38.4,30.06,NNE,28,0.0,0.0,40,0.00,,---,0.00,VWS V14.01,2013-12-01 04:37:00,
2013-11-30 20:42:00,63.2,38.5,30.06,NNE,28,0.0,0.0,40,0.00,,---,0.00,VWS V14.01,2013-12-01 04:42:00,
2013-11-30 20:47:00,62.9,38.9,30.06,NNE,28,0.0,0.0,41,0.00,,---,0.00,VWS V14.01,2013-12-01 04:47:00,
2013-11-30 20:52:00,62.6,39.2,30.06,NNE,28,0.0,0.0,42,0.00,,---,0.00,VWS V14.01,2013-12-01 04:52:00,
2013-11-30 21:02:00,61.8,39.1,30.06,NNE,28,0.0,0.0,43,0.00,,---,0.00,VWS V14.01,2013-12-01 05:02:00,
2013-11-30 21:07:00,61.5,38.8,30.06,NNE,28,0.0,0.0,43,0.00,,---,0.00,VWS V14.01,2013-12-01 05:07:00,
2013-11-30 21:12:00,61.2,39.1,30.06,NNE,28,0.0,0.0,44,0.00,,---,0.00,VWS V14.01,2013-12-01 05:12:00,
2013-11-30 21:17:00,60.7,39.3,30.06,NNE,28,0.0,0.0,45,0.00,,---,0.00,VWS V14.01,2013-12-01 05:17:00,
2013-11-30 21:22:00,60.2,39.9,30.06,NNE,28,0.0,0.0,47,0.00,,---,0.00,VWS V14.01,2013-12-01 05:22:00,
2013-11-30 21:27:00,59.6,39.9,30.06,NNE,28,0.0,0.0,48,0.00,,---,0.00,VWS V14.01,2013-12-01 05:27:00,
2013-11-30 21:32:00,59.0,39.9,30.07,NNE,28,0.0,0.0,49,0.00,,---,0.00,VWS V14.01,2013-12-01 05:32:00,
2013-11-30 21:37:00,58.4,39.8,30.07,NNE,28,0.0,0.0,50,0.00,,---,0.00,VWS V14.01,2013-12-01 05:37:00,
2013-11-30 21:42:00,58.0,39.5,30.07,NNE,28,0.0,0.0,50,0.00,,---,0.00,VWS V14.01,2013-12-01 05:42:00,
2013-11-30 21:52:00,56.9,39.5,30.07,NNE,28,0.0,0.0,52,0.00,,---,0.00,VWS V14.01,2013-12-01 05:52:00,
2013-11-30 21:57:00,56.5,39.6,30.07,NNE,28,0.0,0.0,53,0.00,,---,0.00,VWS V14.01,2013-12-01 05:57:00,
2013-11-30 22:02:00,56.2,39.3,30.08,NNE,28,0.0,0.0,53,0.00,,---,0.00,VWS V14.01,2013-12-01 06:02:00,
2013-11-30 22:12:00,55.4,39.0,30.08,NNE,28,0.0,0.0,54,0.00,,---,0.00,VWS V14.01,2013-12-01 06:12:00,
2013-11-30 22:17:00,55.1,38.8,30.08,NNE,28,0.0,0.0,54,0.00,,---,0.00,VWS V14.01,2013-12-01 06:17:00,
2013-11-30 22:27:00,54.4,38.6,30.08,NNE,28,0.0,0.0,55,0.00,,---,0.00,VWS V14.01,2013-12-01 06:27:00,
2013-11-30 22:32:00,54.1,38.8,30.08,NNE,28,0.0,0.0,56,0.00,,---,0.00,VWS V14.01,2013-12-01 06:32:00,
2013-11-30 22:37:00,53.9,39.0,30.08,NNE,28,0.0,0.0,57,0.00,,---,0.00,VWS V14.01,2013-12-01 06:37:00,
2013-11-30 22:42:00,53.6,38.8,30.08,NNE,28,0.0,0.0,57,0.00,,---,0.00,VWS V14.01,2013-12-01 06:42:00,
2013-11-30 22:52:00,53.3,38.5,30.08,NNE,28,0.0,0.0,57,0.00,,---,0.00,VWS V14.01,2013-12-01 06:52:00,
2013-11-30 22:57:00,53.5,38.7,30.08,NNE,28,0.0,0.0,57,0.00,,---,0.00,VWS V14.01,2013-12-01 06:57:00,
2013-11-30 23:02:00,53.8,38.5,30.08,NNE,28,0.0,0.0,56,0.00,,---,0.00,VWS V14.01,2013-12-01 07:02:00,
2013-11-30 23:12:00,54.7,38.4,30.08,NNE,28,0.0,0.0,54,0.00,,---,0.00,VWS V14.01,2013-12-01 07:12:00,
2013-11-30 23:17:00,55.0,38.7,30.08,NNE,28,0.0,0.0,54,0.00,,---,0.00,VWS V14.01,2013-12-01 07:17:00,
2013-11-30 23:22:00,55.1,38.8,30.08,NNE,28,0.0,0.0,54,0.00,,---,0.00,VWS V14.01,2013-12-01 07:22:00,
2013-11-30 23:27:00,55.1,38.8,30.08,NNE,28,0.0,0.0,54,0.00,,---,0.00,VWS V14.01,2013-12-01 07:27:00,
2013-11-30 23:32:00,55.3,39.0,30.08,NNE,28,0.0,0.0,54,0.00,,---,0.00,VWS V14.01,2013-12-01 07:32:00,
2013-11-30 23:37:00,55.1,38.8,30.08,NNE,28,0.0,0.0,54,0.00,,---,0.00,VWS V14.01,2013-12-01 07:37:00,
2013-11-30 23:47:00,55.0,38.7,30.08,NNE,28,0.0,0.0,54,0.00,,---,0.00,VWS V14.01,2013-12-01 07:47:00,
2013-11-30 23:52:00,55.0,38.7,30.08,NNE,28,0.0,0.0,54,0.00,,---,0.00,VWS V14.01,2013-12-01 07:52:00,
2013-11-30 23:57:00,55.1,38.8,30.08,NNE,28,0.0,0.0,54,0.00,,---,0.00,VWS V14.01,2013-12-01 07:57:00,